Location: Mohawk View
(42.7837°N, 73.7885°W)
Time: 07:39:57
(UTC+00:00)

USA 215 - Pass Details

Date: 17 June 2021
Orbit: 1100 x 1107 km, 123.0° (Epoch: 01 August)

Event Time Altitude Azimuth Distance (km) Brightness Sun altitude
Rises 02:58:44 0° 50° (NE) 3,922 6.3 -18.5°
Reaches altitude 10° 03:01:15 10° 53° (NE) 2,961 5.6 -18.7°
Maximum altitude 03:07:45 66° 135° (SE) 1,192 3.2 -19.3°
Drops below altitude 10° 03:14:13 10° 217° (SW) 2,950 5.2 -19.8°
Sets 03:16:43 0° 220° (SW) 3,906 5.9 -20.0°
